CRA017 MPTO-SKBQ

Flight info

Callsign CRA017
Flight time 0h 52m
Altitude 30000
Route RNP03R TIRLA PONPO UL335 CTG CTG1A
Aircraft PMDG/M-V/N

Departure

Time 2026-04-23 00:52
Airport Tocumen International Airport (MPTO)

Arrival

Time 2026-04-23 01:45
Airport Ernesto Cortissoz International Airport (SKBQ)
Time Latitude Longitude Altitude Speed Heading
2026-04-23 00:29 9.06720 -79.38550 143 ft 0 kts 299°
2026-04-23 00:39 9.06713 -79.38537 143 ft 3 kts 298°
2026-04-23 00:39 9.06703 -79.38519 143 ft 3 kts 298°
2026-04-23 00:39 9.06694 -79.38501 143 ft 3 kts 298°
2026-04-23 00:40 9.06684 -79.38483 143 ft 3 kts 297°
2026-04-23 00:40 9.06675 -79.38465 143 ft 3 kts 296°
2026-04-23 00:40 9.06666 -79.38446 143 ft 3 kts 294°
2026-04-23 00:40 9.06659 -79.38427 143 ft 3 kts 289°
2026-04-23 00:41 9.06653 -79.38408 143 ft 3 kts 276°
2026-04-23 00:41 9.06654 -79.38390 143 ft 3 kts 234°
2026-04-23 00:41 9.06658 -79.38384 143 ft 0 kts 209°
2026-04-23 00:46 9.06655 -79.38386 143 ft 2 kts 209°
2026-04-23 00:46 9.06639 -79.38395 143 ft 4 kts 209°
2026-04-23 00:46 9.06608 -79.38413 143 ft 6 kts 209°
2026-04-23 00:47 9.06565 -79.38437 143 ft 8 kts 209°
2026-04-23 00:47 9.06506 -79.38471 143 ft 11 kts 209°
2026-04-23 00:47 9.06433 -79.38511 143 ft 13 kts 209°
2026-04-23 00:47 9.06348 -79.38560 143 ft 15 kts 209°
2026-04-23 00:48 9.06242 -79.38569 143 ft 17 kts 173°
2026-04-23 00:48 9.06134 -79.38607 143 ft 18 kts 211°
2026-04-23 00:48 9.06022 -79.38673 143 ft 20 kts 210°
2026-04-23 00:48 9.05897 -79.38747 143 ft 21 kts 210°
2026-04-23 00:49 9.05765 -79.38824 143 ft 23 kts 210°
2026-04-23 00:49 9.05621 -79.38909 143 ft 24 kts 209°
2026-04-23 00:49 9.05468 -79.38995 143 ft 26 kts 209°
2026-04-23 00:49 9.05311 -79.39085 143 ft 26 kts 210°
2026-04-23 00:50 9.05163 -79.39170 143 ft 23 kts 210°
2026-04-23 00:50 9.05024 -79.39250 143 ft 22 kts 210°
2026-04-23 00:50 9.04907 -79.39317 143 ft 17 kts 210°
2026-04-23 00:50 9.04807 -79.39316 143 ft 15 kts 127°
2026-04-23 00:51 9.04799 -79.39242 143 ft 11 kts 33°
2026-04-23 00:51 9.04847 -79.39213 143 ft 0 kts 29°
2026-04-23 00:52 9.05081 -79.39080 143 ft 93 kts 29°
2026-04-23 00:52 9.05934 -79.38591 258 ft 176 kts 30°
2026-04-23 00:52 9.06984 -79.37935 1524 ft 174 kts 38°
2026-04-23 00:52 9.07678 -79.36970 2808 ft 169 kts 64°
2026-04-23 00:53 9.08091 -79.35804 3515 ft 187 kts 70°
2026-04-23 00:53 9.08584 -79.34481 3944 ft 218 kts 69°
2026-04-23 00:53 9.09158 -79.32938 4411 ft 245 kts 69°
2026-04-23 00:53 9.09751 -79.31333 5379 ft 246 kts 69°
2026-04-23 00:54 9.10352 -79.29699 6327 ft 250 kts 70°
2026-04-23 00:54 9.10965 -79.28028 7245 ft 253 kts 70°
2026-04-23 00:54 9.11582 -79.26344 8131 ft 257 kts 70°
2026-04-23 00:54 9.12209 -79.24636 8991 ft 260 kts 70°
2026-04-23 00:55 9.12837 -79.22896 9830 ft 264 kts 71°
2026-04-23 00:55 9.13278 -79.21111 10633 ft 267 kts 79°
2026-04-23 00:55 9.13567 -79.19236 11444 ft 270 kts 82°
2026-04-23 00:55 9.13814 -79.17342 12236 ft 274 kts 82°
2026-04-23 00:56 9.14066 -79.15418 13020 ft 277 kts 82°
2026-04-23 00:56 9.14322 -79.13480 13791 ft 280 kts 82°
2026-04-23 00:56 9.14582 -79.11528 14543 ft 284 kts 82°
2026-04-23 00:56 9.14850 -79.09533 15291 ft 287 kts 82°
2026-04-23 00:57 9.15122 -79.07513 16026 ft 291 kts 82°
2026-04-23 00:57 9.15398 -79.05469 16746 ft 294 kts 82°
2026-04-23 00:57 9.15678 -79.03406 17450 ft 297 kts 82°
2026-04-23 00:57 9.15961 -79.01320 18140 ft 301 kts 82°
2026-04-23 00:58 9.16247 -78.99209 18820 ft 304 kts 82°
2026-04-23 00:58 9.16536 -78.97089 19476 ft 307 kts 82°
2026-04-23 00:58 9.16828 -78.94940 20120 ft 310 kts 82°
2026-04-23 00:58 9.17125 -78.92755 20752 ft 313 kts 82°
2026-04-23 00:59 9.17423 -78.90566 21360 ft 316 kts 82°
2026-04-23 00:59 9.17721 -78.88374 21946 ft 320 kts 82°
2026-04-23 00:59 9.18034 -78.86106 22533 ft 323 kts 82°
2026-04-23 00:59 9.18345 -78.83852 23100 ft 325 kts 82°
2026-04-23 01:00 9.18661 -78.81552 23579 ft 337 kts 82°
2026-04-23 01:00 9.18991 -78.79138 23884 ft 356 kts 82°
2026-04-23 01:00 9.19340 -78.76587 24111 ft 375 kts 82°
2026-04-23 01:00 9.19703 -78.73919 24324 ft 394 kts 82°
2026-04-23 01:01 9.20086 -78.71108 24634 ft 407 kts 82°
2026-04-23 01:01 9.20477 -78.68232 25195 ft 413 kts 82°
2026-04-23 01:01 9.20867 -78.65367 25809 ft 417 kts 82°
2026-04-23 01:01 9.21262 -78.62459 26393 ft 421 kts 82°
2026-04-23 01:02 9.21667 -78.59477 26978 ft 424 kts 82°
2026-04-23 01:02 9.22061 -78.56570 27676 ft 423 kts 82°
2026-04-23 01:02 9.22462 -78.53613 28451 ft 420 kts 82°
2026-04-23 01:02 9.22861 -78.50701 29133 ft 419 kts 82°
2026-04-23 01:03 9.23258 -78.47782 29696 ft 421 kts 82°
2026-04-23 01:03 9.23660 -78.44822 29958 ft 423 kts 82°
2026-04-23 01:03 9.24061 -78.41853 29997 ft 433 kts 82°
2026-04-23 01:04 9.24895 -78.35659 30007 ft 453 kts 82°
2026-04-23 01:04 9.26202 -78.25939 30006 ft 474 kts 82°
2026-04-23 01:05 9.27411 -78.19361 30006 ft 473 kts 75°
2026-04-23 01:05 9.29577 -78.13087 30006 ft 473 kts 69°
2026-04-23 01:06 9.31985 -78.06884 30006 ft 473 kts 69°
2026-04-23 01:06 9.34364 -78.00677 30007 ft 473 kts 69°
2026-04-23 01:07 9.36741 -77.94446 30006 ft 473 kts 69°
2026-04-23 01:07 9.39108 -77.88229 30006 ft 473 kts 69°
2026-04-23 01:08 9.41480 -77.82023 30006 ft 473 kts 69°
2026-04-23 01:08 9.43837 -77.75837 30006 ft 473 kts 69°
2026-04-23 01:09 9.46208 -77.69619 30006 ft 473 kts 69°
2026-04-23 01:09 9.48570 -77.63408 30006 ft 473 kts 69°
2026-04-23 01:10 9.50934 -77.57177 30006 ft 473 kts 69°
2026-04-23 01:10 9.53295 -77.50948 30006 ft 473 kts 69°
2026-04-23 01:11 9.55641 -77.44761 30006 ft 473 kts 69°
2026-04-23 01:11 9.57924 -77.38546 30006 ft 473 kts 71°
2026-04-23 01:12 9.60047 -77.32172 30006 ft 473 kts 71°
2026-04-23 01:12 9.62150 -77.25894 30006 ft 473 kts 71°
2026-04-23 01:13 9.64277 -77.19563 30006 ft 473 kts 71°
2026-04-23 01:13 9.66398 -77.13259 30006 ft 473 kts 71°
2026-04-23 01:14 9.68174 -77.07987 30006 ft 473 kts 71°
2026-04-23 01:14 9.70653 -77.00663 30006 ft 473 kts 71°
2026-04-23 01:15 9.72425 -76.95409 30006 ft 473 kts 71°
2026-04-23 01:15 9.74555 -76.89087 30006 ft 473 kts 71°
2026-04-23 01:16 9.76680 -76.82771 30006 ft 473 kts 71°
2026-04-23 01:16 9.78801 -76.76460 30006 ft 473 kts 71°
2026-04-23 01:17 9.80914 -76.70169 30006 ft 473 kts 71°
2026-04-23 01:17 9.83037 -76.63846 30006 ft 473 kts 71°
2026-04-23 01:18 9.85152 -76.57540 30006 ft 473 kts 71°
2026-04-23 01:18 9.87272 -76.51218 30006 ft 473 kts 71°
2026-04-23 01:19 9.89391 -76.44891 30006 ft 473 kts 71°
2026-04-23 01:19 9.91506 -76.38574 30006 ft 473 kts 71°
2026-04-23 01:20 9.93619 -76.32257 30006 ft 473 kts 71°
2026-04-23 01:20 9.95730 -76.25941 30006 ft 473 kts 71°
2026-04-23 01:21 9.97829 -76.19659 30002 ft 452 kts 71°
2026-04-23 01:21 9.98810 -76.16718 30002 ft 433 kts 71°
2026-04-23 01:21 9.99757 -76.13883 30003 ft 424 kts 71°
2026-04-23 01:22 10.01628 -76.08275 29792 ft 418 kts 71°
2026-04-23 01:22 10.02555 -76.05494 29470 ft 411 kts 71°
2026-04-23 01:22 10.03470 -76.02751 28928 ft 408 kts 71°
2026-04-23 01:23 10.04380 -76.00018 28379 ft 406 kts 71°
2026-04-23 01:23 10.05280 -75.97319 27839 ft 403 kts 71°
2026-04-23 01:23 10.06176 -75.94627 27302 ft 400 kts 71°
2026-04-23 01:23 10.07063 -75.91963 26772 ft 397 kts 71°
2026-04-23 01:24 10.07945 -75.89315 26242 ft 394 kts 71°
2026-04-23 01:24 10.08822 -75.86678 25716 ft 392 kts 71°
2026-04-23 01:24 10.09676 -75.84111 25203 ft 389 kts 71°
2026-04-23 01:24 10.10539 -75.81518 24681 ft 386 kts 71°
2026-04-23 01:25 10.11398 -75.78951 24166 ft 383 kts 71°
2026-04-23 01:25 10.12259 -75.76366 23645 ft 380 kts 71°
2026-04-23 01:25 10.13094 -75.73853 23138 ft 378 kts 71°
2026-04-23 01:25 10.13927 -75.71343 22631 ft 375 kts 71°
2026-04-23 01:26 10.14758 -75.68838 22124 ft 372 kts 71°
2026-04-23 01:26 10.15580 -75.66358 21622 ft 370 kts 71°
2026-04-23 01:26 10.16398 -75.63890 21121 ft 367 kts 71°
2026-04-23 01:26 10.17209 -75.61442 20621 ft 365 kts 71°
2026-04-23 01:27 10.18015 -75.59008 20123 ft 362 kts 71°
2026-04-23 01:27 10.18818 -75.56585 19621 ft 360 kts 71°
2026-04-23 01:27 10.19612 -75.54191 19124 ft 357 kts 71°
2026-04-23 01:27 10.20541 -75.51858 18619 ft 355 kts 62°
2026-04-23 01:28 10.21900 -75.49792 18131 ft 352 kts 52°
2026-04-23 01:28 10.23433 -75.47844 17615 ft 350 kts 50°
2026-04-23 01:28 10.25010 -75.45968 17107 ft 348 kts 49°
2026-04-23 01:28 10.26613 -75.44120 16599 ft 346 kts 49°
2026-04-23 01:29 10.28185 -75.42321 16102 ft 344 kts 48°
2026-04-23 01:29 10.29770 -75.40516 15600 ft 341 kts 48°
2026-04-23 01:29 10.31351 -75.38719 15096 ft 339 kts 48°
2026-04-23 01:29 10.32917 -75.36944 14594 ft 337 kts 48°
2026-04-23 01:30 10.34474 -75.35181 14091 ft 335 kts 48°
2026-04-23 01:30 10.36030 -75.33421 13585 ft 332 kts 48°
2026-04-23 01:30 10.37565 -75.31683 13080 ft 330 kts 48°
2026-04-23 01:30 10.39101 -75.29946 12571 ft 328 kts 48°
2026-04-23 01:31 10.40614 -75.28235 12066 ft 326 kts 48°
2026-04-23 01:31 10.42126 -75.26526 11556 ft 324 kts 48°
2026-04-23 01:31 10.43634 -75.24822 11042 ft 322 kts 48°
2026-04-23 01:31 10.45124 -75.23144 10533 ft 320 kts 48°
2026-04-23 01:32 10.46605 -75.21473 10086 ft 315 kts 48°
2026-04-23 01:32 10.48026 -75.19868 10002 ft 299 kts 48°
2026-04-23 01:32 10.49392 -75.18325 9987 ft 282 kts 48°
2026-04-23 01:32 10.50652 -75.16901 9895 ft 267 kts 48°
2026-04-23 01:33 10.51850 -75.15550 9794 ft 248 kts 48°
2026-04-23 01:33 10.52962 -75.14297 9677 ft 231 kts 48°
2026-04-23 01:33 10.54002 -75.13123 9564 ft 216 kts 48°
2026-04-23 01:33 10.54975 -75.12023 9446 ft 202 kts 48°
2026-04-23 01:34 10.55898 -75.10979 9180 ft 198 kts 48°
2026-04-23 01:34 10.56825 -75.09930 8834 ft 198 kts 48°
2026-04-23 01:34 10.57745 -75.08889 8508 ft 197 kts 48°
2026-04-23 01:34 10.58659 -75.07854 8184 ft 196 kts 48°
2026-04-23 01:35 10.59566 -75.06827 7861 ft 195 kts 48°
2026-04-23 01:35 10.60471 -75.05801 7539 ft 194 kts 48°
2026-04-23 01:35 10.61373 -75.04780 7217 ft 193 kts 48°
2026-04-23 01:35 10.62266 -75.03768 6911 ft 192 kts 48°
2026-04-23 01:36 10.63152 -75.02764 6593 ft 191 kts 48°
2026-04-23 01:36 10.64037 -75.01760 6278 ft 190 kts 48°
2026-04-23 01:36 10.64917 -75.00764 5963 ft 189 kts 48°
2026-04-23 01:36 10.65794 -74.99769 5650 ft 188 kts 48°
2026-04-23 01:37 10.66657 -74.98791 5342 ft 187 kts 48°
2026-04-23 01:37 10.67530 -74.97801 5029 ft 186 kts 48°
2026-04-23 01:37 10.68392 -74.96824 4721 ft 186 kts 48°
2026-04-23 01:37 10.69253 -74.95848 4413 ft 185 kts 48°
2026-04-23 01:38 10.70110 -74.94877 4111 ft 184 kts 48°
2026-04-23 01:38 10.70947 -74.93929 4008 ft 174 kts 48°
2026-04-23 01:38 10.71722 -74.93050 3912 ft 161 kts 48°
2026-04-23 01:38 10.72458 -74.92215 3607 ft 159 kts 48°
2026-04-23 01:39 10.73216 -74.91378 3255 ft 161 kts 45°
2026-04-23 01:39 10.74039 -74.90618 2973 ft 159 kts 41°
2026-04-23 01:39 10.74819 -74.89889 2872 ft 144 kts 44°
2026-04-23 01:39 10.75531 -74.89226 2757 ft 135 kts 41°
2026-04-23 01:40 10.76230 -74.88610 2626 ft 131 kts 40°
2026-04-23 01:40 10.76931 -74.88013 2533 ft 131 kts 40°
2026-04-23 01:40 10.77633 -74.87424 2445 ft 132 kts 39°
2026-04-23 01:40 10.78338 -74.86836 2351 ft 131 kts 39°
2026-04-23 01:41 10.79049 -74.86246 2299 ft 131 kts 39°
2026-04-23 01:41 10.79764 -74.85654 2146 ft 132 kts 39°
2026-04-23 01:41 10.80475 -74.85067 1962 ft 131 kts 39°
2026-04-23 01:41 10.81178 -74.84486 1786 ft 130 kts 39°
2026-04-23 01:42 10.81875 -74.83910 1615 ft 130 kts 39°
2026-04-23 01:42 10.82574 -74.83333 1443 ft 130 kts 39°
2026-04-23 01:42 10.83270 -74.82757 1273 ft 129 kts 39°
2026-04-23 01:42 10.83972 -74.82178 1099 ft 129 kts 39°
2026-04-23 01:43 10.84665 -74.81605 928 ft 129 kts 39°
2026-04-23 01:43 10.85359 -74.81032 758 ft 128 kts 39°
2026-04-23 01:43 10.86047 -74.80464 587 ft 128 kts 39°
2026-04-23 01:43 10.86738 -74.79893 399 ft 128 kts 39°
2026-04-23 01:44 10.87433 -74.79317 267 ft 124 kts 39°
2026-04-23 01:44 10.88099 -74.78757 108 ft 123 kts 39°
2026-04-23 01:44 10.88667 -74.78281 106 ft 88 kts 38°
2026-04-23 01:44 10.89045 -74.78008 106 ft 56 kts 39°
2026-04-23 01:45 10.89226 -74.77834 106 ft 13 kts 41°
2026-04-23 01:45 10.89244 -74.77818 106 ft 7 kts 41°
2026-04-23 01:45 10.89299 -74.77774 106 ft 10 kts 38°
2026-04-23 01:45 10.89356 -74.77700 106 ft 17 kts 72°
2026-04-23 01:46 10.89360 -74.77636 106 ft 13 kts 90°
2026-04-23 01:46 10.89359 -74.77602 106 ft 15 kts 95°
2026-04-23 01:46 10.89303 -74.77562 106 ft 8 kts 206°
2026-04-23 01:46 10.89264 -74.77598 106 ft 7 kts 224°
2026-04-23 01:47 10.89227 -74.77632 106 ft 7 kts 220°
2026-04-23 01:47 10.89190 -74.77663 106 ft 7 kts 220°
2026-04-23 01:47 10.89154 -74.77694 106 ft 7 kts 220°
2026-04-23 01:47 10.89118 -74.77722 106 ft 6 kts 217°
2026-04-23 01:48 10.89083 -74.77750 106 ft 6 kts 219°
2026-04-23 01:48 10.89050 -74.77777 106 ft 6 kts 219°
2026-04-23 01:48 10.89018 -74.77804 106 ft 6 kts 220°
2026-04-23 01:48 10.88987 -74.77830 106 ft 6 kts 220°
2026-04-23 01:49 10.88956 -74.77854 106 ft 5 kts 208°
2026-04-23 01:49 10.88921 -74.77854 106 ft 5 kts 157°
2026-04-23 01:49 10.88894 -74.77830 106 ft 5 kts 130°
2026-04-23 01:49 10.88873 -74.77802 106 ft 5 kts 107°
2026-04-23 01:50 10.88880 -74.77768 106 ft 5 kts 77°
2026-04-23 01:50 10.88873 -74.77738 106 ft 5 kts 130°
2026-04-23 01:50 10.88854 -74.77713 106 ft 4 kts 126°
2026-04-23 01:50 10.88842 -74.77696 106 ft 3 kts 126°
2026-04-23 01:51 10.88838 -74.77691 106 ft 0 kts 126°